Weather Roundup
Issued by NWS Springfield, MO

Home | Current Version | Previous Version | Text Only | Print | Product List | Glossary On
Versions: 1 2 3 4 5 6 7 8 9 10 11 12 13 14 15 16 17 18 19 20 21 22 23 24 25 26 27 28 29 30 31 32 33 34 35 36 37 38 39 40 41 42 43 44 45 46 47 48 49 50
000
NZUS99 KSGF 251959
HRRSGF

HOURLY WEATHER
NATIONAL WEATHER SERVICE SPRINGFIELD MO
300 PM CDT FRI JUL 25 2014

......SGF CWA......

CITY           SKY/WX    TMP DP  RH WIND       PRES   REMARKS
SPRINGFIELD    SUNNY     90  69  50 S16       29.95F HX  94
JOPLIN         SUNNY     92  69  47 S16       29.92F HX  97
WEST PLAINS    SUNNY     83  66  56 SE12G18   30.02F
ROLLA          MOSUNNY   89  64  43 S12       29.97R HX  90
OSAGE BEACH    MOSUNNY   91  70  49 S9        29.93S HX  97
BRANSON        MOSUNNY   93  68  43 S7        30.00F HX  97

......SURROUNDING SGF CWA......

CITY           SKY/WX    TMP DP  RH WIND       PRES   REMARKS
CHANUTE        SUNNY     93  72  50 S16G26    29.87F HX 101
PARSONS        SUNNY     93  73  52 S12G22    29.89F HX 102
COFFEYVILLE    SUNNY     93  73  52 S18G28    29.87F HX 102
EMPORIA        SUNNY     99  67  35 SW21G31   29.82F HX 103
SILOAM SPRINGS SUNNY     88  68  51 S13       29.99F HX  91
HARRISON AR    SUNNY     87  71  58 S9        30.00F HX  93
NEAR YELLVILLE MOSUNNY   86  70  58 SE3       29.99F HX  90

......KANSAS AND MISSOURI......

CITY           SKY/WX    TMP DP  RH WIND       PRES   REMARKS
KANSAS CTY INT MOSUNNY   94  73  50 SW14      29.81F HX 103
DOWNTOWN KC    SUNNY     97  70  41 SW17G24   29.80F HX 103
COLUMBIA       PTSUNNY   85  68  56 SE16      29.94F
SEDALIA        MOSUNNY   92  72  51 S14G21    29.89F HX  99
ST JOSEPH      SUNNY     94  75  54 S15       29.77F HX 105
ST LOUIS       TSTM      69  64  84 SE14      30.05F
SPIRIT OF STL  TSTM      70  62  76 SE7       30.00F
KIRKSVILLE     CLOUDY    74  65  73 SE20      29.88F
WICHITA        MOSUNNY  100  65  31 S21G29    29.82F HX 103
TOPEKA         SUNNY    101  68  34 S14G21    29.77F HX 106
OLATHE         SUNNY     94  71  47 SW15G22   29.83F HX 101

......TENNESSEE......

CITY           SKY/WX    TMP DP  RH WIND       PRES   REMARKS
MEMPHIS        MOSUNNY   86  61  42 VRB6      30.02F
NASHVILLE      MOSUNNY   85  55  35 CALM      30.03F

......ARKANSAS.......

CITY           SKY/WX    TMP DP  RH WIND       PRES   REMARKS
FAYETTEVILLE   SUNNY     87  71  58 S15       29.99F HX  93
FT SMITH       SUNNY     90  70  51 SW9       29.96F HX  95
LITTLE ROCK    MOSUNNY   87  67  51 SW8       30.01F HX  90

......OKLAHOMA.......

CITY           SKY/WX    TMP DP  RH WIND       PRES   REMARKS
TULSA          SUNNY     94  73  50 S14G22    29.89F HX 103
PONCA CITY     SUNNY     98  68  37 S9G22     29.85F HX 103
MCALESTER      SUNNY     91  72  53 S10       29.97F HX  98
OKLAHOMA CITY  SUNNY     98  64  32 SW20      29.91F HX 100

......IOWA............

CITY           SKY/WX    TMP DP  RH WIND       PRES   REMARKS
DES MOINES     PTSUNNY   79  66  64 S18G25    29.81F
QUAD CITIES    PTSUNNY   74  64  71 VRB5      29.88R

......ILLINOIS........

CITY           SKY/WX    TMP DP  RH WIND       PRES   REMARKS
QUINCY         MOSUNNY   72  62  71 S20G36    29.89F
CHICAGO        PTSUNNY   74  56  53 SW12      29.96R



USA.gov is the U.S. government's official web portal to all federal, state and local government web resources and services.